Flag for Germany Weather past 2 weeks in Gerolstein, Rhineland-Palatinate, Germany

Now
54 °F

Low clouds.


Feels Like: 54 °F
Forecast: 53 / 71 °F
Wind: 1 mph from Northwest

Location: Nuerburg-Barweiler

Current Time: Sep 3, 2014 at 4:38:20 AM

Latest Report: Sep 3, 2014 at 4:00 AM


Visibility: 2 mi

Pressure: 30.21 "Hg

Humidity: 99%

Dew point: 54 °F

Location of GerolsteinLocation

Historic Weather in Gerolstein — Graph

°F

Gerolstein temperature yesterday

Maximum temperature yesterday: 64 °F (at 4:00 PM)
Minimum temperature yesterday: 45 °F (at 7:00 AM)
Average temperature yesterday: 56 °F

Past Weeks' High & Low Weather Summary

 TemperatureHumidityPressure
High68 °F (Aug 28, 1:00 PM)100% (Sep 2, 8:00 AM)30.22 "Hg (Sep 2, 8:00 AM)
Low43 °F (Aug 24, 7:00 AM)52% (Aug 20, 2:00 PM)29.62 "Hg (Aug 26, 6:00 AM)
Average55 °F84%30.00 "Hg
* Reported Aug 19 3:00 AM — Sep 3 3:00 AM, Gerolstein, Weather by CustomWeather, © 2014

Note: Actual official high and low records may vary slightly from our data, if they occured in-between our weather recording intervals... More about our weather records

Advertising

Gerolstein weather history for previous 24 hours

 ConditionsComfort  
Time TempWeatherWind HumidityBarometerVisibility
3:00 AM
Sep 3
54 °FFog.1 mph98%30.21 "Hg1 mi
2:00 AM54 °FLow clouds.1 mph98%30.22 "Hg1 mi
1:00 AM55 °FLow clouds.2 mph98%30.22 "Hg1 mi
12:00 AM55 °FFog.2 mph97%30.22 "Hg2 mi
11:00 PM
Sep 2
55 °FFog.2 mph95%30.22 "Hg4 mi
10:00 PM57 °FClear.2 mph91%30.22 "Hg8 mi
9:00 PM58 °FOvercast.2 mph88%30.20 "Hg16 mi
8:00 PM60 °FOvercast.3 mph83%30.18 "Hg22 mi
7:00 PM61 °FOvercast.5 mph75%30.17 "Hg19 mi
6:00 PM62 °FPartly sunny.5 mph70%30.16 "Hg25 mi
4:00 PM64 °FPassing clouds.6 mph64%30.16 "Hg22 mi
3:00 PM63 °FPassing clouds.6 mph63%30.16 "Hg22 mi
2:00 PM64 °FPassing clouds.3 mph66%30.17 "Hg19 mi
1:00 PM62 °FPassing clouds.5 mph64%30.17 "Hg19 mi
12:00 PM60 °FPassing clouds.5 mph73%30.19 "Hg14 mi
10:00 AM55 °FPassing clouds.1 mph85%30.19 "Hg10 mi
9:00 AM52 °FSunny.1 mph98%30.19 "Hg9 mi
8:00 AM48 °FFog.2 mph100%30.20 "Hg7 mi
7:00 AM45 °FFog.2 mph99%30.20 "Hg0 mi
6:00 AM46 °FFog.2 mph98%30.19 "Hg1 mi
4:00 AM49 °FClear.1 mph97%30.19 "Hg1 mi
Weather by CustomWeather, © 2014

See weather overviewHow to use our weather pages